Find Starlink 34508

NORAD ID: 64601 Int'l Des: 2025-137 Owner: SPXS Country: US Constellation: starlink operational
LEOCIRCULAR

当前视图

正在加载3D地球...

About Starlink 34508

Starlink 34508 (NORAD 64601) is a starlink constellation satellite (v2 mini) launched Jun 25, 2025 by SPXS of US. It operates in LEO, CIRCULAR orbit with a mass of 575.00 kg.

关于 Starlink 34508

正在加载描述...

即将过境

Passes for default location (London). Set your location on the main map for personalized predictions.

高度历史

Loading altitude history...

两行轨道根数

1 64601U 25137H 26164.55305089 .00022485 00000-0 76891-3 0 9994
2 64601 53.1600 249.8427 0001133 92.3984 267.7146 15.30203112 55419
Epoch: Jun 13, 2026 • Age: 12 hours

当前状态

高度 477.2 km
速度 7.63 km/s
星下点 -6.61°S, 154.19°E
发射日期 Jun 25, 2025
运行时间 0.9 years
类型 internet

技术详情

分类 Payload
质量 575.00 kg
干质量 530.00 kg
总质量 575.00 kg
长度 0.30 m
直径 4.10 m
跨度 29.00 m
形状 Box + pan
制造商 SPXS
平台类型 Starlink V2MO
阶段状态 In Orbit
所有者/国家 SPXS/US

Most Searched